{"data":{"norad_id":58005,"intl_designator":"2023-153Q","name":"STARLINK-30530","alt_names":[],"object_type":"PAYLOAD","status":"ACTIVE","operator":null,"country":"US","launch_date":"2023-10-05","launch_site_code":"AFETR","launch_vehicle":null,"mission":null,"orbit_class":"UNKNOWN","rcs_meters":null,"size_class":null,"mass_kg":null,"dimensions":null,"purposes":["comms"],"wikipedia_slug":null,"has_3d_model":false,"image_url":null,"decayed_at":null,"tle_current":{"epoch":"2026-09-20T09:08:38.444928Z","epoch_age_seconds":147824,"freshness":"FRESH","line1":"1 58005U 23153Q   26263.38100052 -.00000467  00000+0 -74353-5 0  9995","line2":"2 58005  43.0053  47.3850 0001502 269.7780  90.2900 15.27573473164677","mean_motion":15.27573473,"eccentricity":0.0001502,"inclination_deg":43.0053,"raan_deg":47.385,"arg_perigee_deg":269.778,"mean_anomaly_deg":90.29,"bstar":-7.4353e-6,"rev_number":16467,"period_min":94.267151495632,"perigee_km":482.03808720815,"apogee_km":484.09919338249,"semimajor_km":6861.2056402953,"source":"CELESTRAK","updated_at":"2026-09-21T09:00:33.755662Z"}}}